Starlink 3789

operational
NORAD ID: 52283 Int'l Des: 2022-041 Owner: SPXS Country: US Constellation: starlink
LEOCIRCULAR

Starlink 3789について

説明を読み込み中...

リアルタイム位置

3D地球を読み込み中...

次回通過

高度履歴

Altitude vs Time

uPlot chart will show altitude changes over time

軌道要素

1 52283U 22041Y 26036.80260804 -.00001983 00000-0 -10651-3 0 9993
2 52283 53.2162 252.2701 0001394 89.6537 270.4615 15.08839353209556
Epoch: Feb 5, 2026 • Age: 6 hours

現在のステータス

高度 547.9 km
速度 7.59 km/s
衛星直下点 -26.04°S, 71.46°E
打ち上げ日 Apr 21, 2022
運用期間 3.7 years
タイプ internet

技術仕様

分類 Payload
質量 297.00 kg
乾燥質量 275.00 kg
総質量 297.00 kg
長さ 0.20 m
直径 2.80 m
スパン 9.00 m
形状 Box + pan
製造者 SPXS
バスタイプ Starlink
フェーズステータス In Orbit
所有者/国 SPXS/US

大規模コンステレーション

Loading constellations...